TimeCST,TemperatureF,Dew PointF,Humidity,Sea Level PressureIn,VisibilityMPH,Wind Direction,Wind SpeedMPH,Gust SpeedMPH,PrecipitationIn,Events,Conditions,WindDirDegrees,DateUTC
12:53 AM,42.1,39.0,89,30.16,10.0,South,9.2,-,N/A,,Partly Cloudy,180,2011-11-24 06:53:00
1:53 AM,39.9,37.0,89,30.16,10.0,South,8.1,-,N/A,,Partly Cloudy,170,2011-11-24 07:53:00
2:53 AM,41.0,37.4,87,30.15,10.0,South,9.2,-,N/A,,Clear,180,2011-11-24 08:53:00
3:53 AM,41.0,39.0,93,30.14,9.0,South,8.1,-,N/A,,Clear,170,2011-11-24 09:53:00
4:53 AM,39.2,39.2,100,30.14,10.0,South,6.9,-,N/A,,Clear,180,2011-11-24 10:53:00
5:53 AM,41.0,39.9,96,30.15,10.0,South,8.1,-,N/A,,Clear,180,2011-11-24 11:53:00
6:53 AM,43.0,39.9,89,30.15,10.0,South,10.4,-,N/A,,Clear,170,2011-11-24 12:53:00
7:53 AM,43.0,41.0,93,30.17,8.0,South,10.4,-,N/A,,Clear,180,2011-11-24 13:53:00
8:53 AM,46.9,43.0,86,30.17,8.0,South,13.8,-,N/A,,Partly Cloudy,180,2011-11-24 14:53:00
9:53 AM,52.0,46.0,80,30.14,10.0,South,17.3,-,N/A,,Partly Cloudy,190,2011-11-24 15:53:00
10:53 AM,57.0,48.0,72,30.14,10.0,South,19.6,26.5,N/A,,Scattered Clouds,180,2011-11-24 16:53:00
11:53 AM,61.0,48.9,64,30.09,10.0,South,20.7,32.2,N/A,,Scattered Clouds,190,2011-11-24 17:53:00
12:53 PM,64.4,51.8,64,30.06,10.0,South,21.9,27.6,N/A,,Scattered Clouds,190,2011-11-24 18:53:00
1:53 PM,64.9,51.1,61,30.04,10.0,South,24.2,32.2,N/A,,Scattered Clouds,190,2011-11-24 19:53:00
2:53 PM,64.9,51.1,61,30.03,10.0,South,23.0,-,N/A,,Scattered Clouds,180,2011-11-24 20:53:00
3:53 PM,64.0,50.0,60,30.01,10.0,South,23.0,31.1,N/A,,Scattered Clouds,180,2011-11-24 21:53:00
4:53 PM,61.0,48.0,62,30.00,10.0,South,21.9,27.6,N/A,,Scattered Clouds,180,2011-11-24 22:53:00
5:53 PM,57.9,48.0,70,29.99,10.0,South,17.3,-,N/A,,Partly Cloudy,170,2011-11-24 23:53:00
6:53 PM,55.9,46.9,72,30.00,10.0,South,18.4,-,N/A,,Clear,170,2011-11-25 00:53:00
7:53 PM,54.0,46.0,75,30.01,10.0,South,17.3,26.5,N/A,,Clear,170,2011-11-25 01:53:00
8:53 PM,51.8,46.4,82,30.00,10.0,South,16.1,-,N/A,,Partly Cloudy,170,2011-11-25 02:53:00
9:53 PM,50.0,45.0,83,29.99,8.0,South,18.4,25.3,N/A,,Partly Cloudy,170,2011-11-25 03:53:00
10:53 PM,48.2,44.6,87,29.97,8.0,South,15.0,-,N/A,,Partly Cloudy,170,2011-11-25 04:53:00
11:53 PM,46.0,44.1,93,29.96,5.0,South,19.6,-,N/A,,Scattered Clouds,180,2011-11-25 05:53:00